Weather History for Buffalo, WY

Change the Weather History Date:

Sunday, April 14, 2013

  Actual Average Record
Temperature  
Mean Temperature 28 °F 43 °F  
Max Temperature 37 °F 54 °F 79 °F (2008)
Min Temperature 19 °F 32 °F 12 °F (1986)
Degree Days  
Heating Degree Days 37 22  
Month to date heating degree days 365 341  
Since 1 July heating degree days 6249 6531  
Cooling Degree Days 0 0  
Month to date cooling degree days 0 0  
Year to date cooling degree days 0 0  
Moisture  
Dew Point 20 °F    
Average Humidity 71    
Maximum Humidity 91    
Minimum Humidity 51    
Precipitation  
Precipitation T in 0.04 in 0.35 in (2012)
Month to date precipitation 0.26 0.43  
Year to date precipitation 0.95 2.12  
Sea Level Pressure  
Sea Level Pressure 29.66 in    
Wind  
Wind Speed 27 mph (NNW)    
Max Wind Speed 44 mph    
Max Gust Speed 56 mph    
Visibility 6 miles    
Events Snow    
T = Trace of Precipitation, MM = Missing Value Source: NWS Daily Summary

Daily Weather History Graph

Daily Weather History Graph

Search for Another Location

Airport:

Trip Planner

Search our weather history database for the weather conditions in past years. The results will help you decide how hot, cold, wet, or windy it might be!

Date:

Astronomy

Apr. 14, 2013 Rise Set
Actual Time 6:24 AM MDT 7:50 PM MDT
Civil Twilight 5:54 AM MDT 8:20 PM MDT
Nautical Twilight 5:17 AM MDT 8:57 PM MDT
Astronomical Twilight 4:38 AM MDT 9:36 PM MDT
Moon 8:56 AM MDT (4/14) No Moon Set
Length of Visible Light 14h 26m
Length of Day
13h 26m
Waxing Crescent, 17% of the Moon is Illuminated
Apr 14
Waxing Crescent
Apr 18
First Quarter
Apr 25
Full
May 2
Last Quarter
May 9
New

Hourly Weather History & Observations

Time (MDT) Temp. Windchill Dew Point Humidity Pressure Visibility Wind Dir Wind Speed Gust Speed Precip Events Conditions
12:25 AM 32.0 °F 16.7 °F 26.6 °F 80% 29.46 in 2.0 mi NW 34.5 mph 47.2 mph 0.00 in Snow Light Snow
12:32 AM 32.0 °F 16.5 °F 24.8 °F 75% 29.47 in 3.0 mi NNW 35.7 mph 44.9 mph 0.00 in Snow Light Snow
12:53 AM 30.9 °F 15.9 °F 23.0 °F 72% 29.45 in 7.0 mi NW 31.1 mph 47.2 mph 0.00 in Snow Light Snow
1:06 AM 30.2 °F 14.5 °F 21.2 °F 69% 29.49 in 10.0 mi NW 33.4 mph 47.2 mph 0.00 in   Overcast
1:53 AM 32.0 °F 18.4 °F 19.0 °F 59% 29.47 in 10.0 mi NW 26.5 mph 41.4 mph 0.00 in   Overcast
2:53 AM 32.0 °F 21.6 °F 18.0 °F 56% 29.46 in 10.0 mi NW 15.0 mph 25.3 mph N/A   Overcast
3:53 AM 30.9 °F 16.7 °F 18.0 °F 59% 29.47 in 10.0 mi NNW 27.6 mph 40.3 mph N/A   Overcast
4:53 AM 28.9 °F 13.7 °F 19.0 °F 67% 29.49 in 10.0 mi NNW 28.8 mph 42.6 mph N/A   Overcast
5:53 AM 27.0 °F 11.9 °F 19.9 °F 75% 29.57 in 10.0 mi NNW 25.3 mph 38.0 mph N/A   Overcast
6:53 AM 28.9 °F 15.8 °F 15.1 °F 56% 29.57 in 10.0 mi NNW 20.7 mph 29.9 mph N/A   Overcast
7:53 AM 28.9 °F 18.2 °F 15.1 °F 56% 29.60 in 10.0 mi NNW 13.8 mph 26.5 mph N/A   Overcast
8:53 AM 30.9 °F 17.2 °F 16.0 °F 54% 29.59 in 10.0 mi NNW 25.3 mph 36.8 mph N/A   Overcast
9:53 AM 33.1 °F 18.9 °F 18.0 °F 54% 29.58 in 10.0 mi NNW 31.1 mph 40.3 mph N/A   Overcast
10:53 AM 34.0 °F 19.3 °F 19.0 °F 54% 29.59 in 10.0 mi NNW 35.7 mph 43.7 mph N/A   Mostly Cloudy
11:53 AM 36.0 °F 23.0 °F 19.9 °F 52% 29.60 in 10.0 mi North 29.9 mph 40.3 mph N/A   Partly Cloudy
12:53 PM 35.1 °F 21.4 °F 19.9 °F 54% 29.61 in 10.0 mi North 32.2 mph 46.0 mph N/A   Overcast
2:51 PM 33.8 °F 18.8 °F 23.0 °F 65% 29.60 in 10.0 mi North 36.8 mph 49.5 mph N/A   Mostly Cloudy
2:53 PM 32.0 °F 16.3 °F 23.0 °F 69% 29.65 in 10.0 mi North 36.8 mph 49.5 mph N/A   Mostly Cloudy
3:53 PM 30.9 °F 15.7 °F 24.1 °F 76% 29.67 in 1.8 mi North 32.2 mph 46.0 mph 0.00 in Snow Light Snow
4:02 PM 30.2 °F 14.5 °F 24.8 °F 80% 29.61 in 1.0 mi NNW 33.4 mph 46.0 mph 0.00 in Snow Light Snow
4:06 PM 30.2 °F 14.3 °F 24.8 °F 80% 29.62 in 1.5 mi North 34.5 mph 47.2 mph 0.00 in Snow Light Snow
4:14 PM 30.2 °F 16.2 °F 23.0 °F 75% 29.62 in 3.0 mi NNW 25.3 mph 47.2 mph 0.00 in Snow Light Snow
4:26 PM 30.2 °F 14.1 °F 21.2 °F 69% 29.62 in 2.5 mi NNW 35.7 mph 47.2 mph 0.00 in Snow Light Snow
4:30 PM 30.2 °F 13.7 °F 21.2 °F 69% 29.62 in 1.8 mi NNW 38.0 mph 47.2 mph 0.00 in Snow Light Snow
4:36 PM 30.2 °F 14.1 °F 21.2 °F 69% 29.63 in 2.0 mi NNW 35.7 mph 49.5 mph 0.00 in Snow Light Snow
4:40 PM 30.2 °F 14.1 °F 21.2 °F 69% 29.63 in 3.0 mi North 35.7 mph 49.5 mph 0.00 in Snow Light Snow
4:53 PM 30.0 °F 13.2 °F 21.9 °F 72% 29.70 in 8.0 mi NNW 39.1 mph 49.5 mph 0.00 in Snow Light Snow
5:13 PM 28.4 °F 12.0 °F 21.2 °F 74% 29.65 in 1.8 mi North 33.4 mph 43.7 mph 0.00 in Snow Light Snow
5:29 PM 28.4 °F 12.0 °F 21.2 °F 74% 29.67 in 3.0 mi NNW 33.4 mph 44.9 mph 0.00 in Snow Light Snow
5:44 PM 28.4 °F 11.8 °F 21.2 °F 74% 29.68 in 2.0 mi North 34.5 mph 46.0 mph 0.00 in Snow Light Snow
5:53 PM 28.0 °F 11.8 °F 21.0 °F 75% 29.77 in 2.0 mi NNW 32.2 mph 42.6 mph 0.00 in Snow Light Snow
5:56 PM 28.4 °F 12.3 °F 21.2 °F 74% 29.69 in 1.8 mi NNW 32.2 mph 42.6 mph 0.00 in Snow Light Snow
6:24 PM 26.6 °F 9.8 °F 21.2 °F 80% 29.70 in 1.0 mi NNW 32.2 mph 44.9 mph 0.00 in Snow Light Snow
6:32 PM 26.6 °F 11.1 °F 21.2 °F 80% 29.71 in 2.0 mi NNW 26.5 mph 47.2 mph 0.00 in Snow Light Snow
6:53 PM 25.0 °F 7.3 °F 19.9 °F 81% 29.81 in 2.0 mi NNW 33.4 mph 39.1 mph 0.00 in Snow Light Snow
7:04 PM 24.8 °F 8.4 °F 19.4 °F 80% 29.73 in 3.0 mi NNW 27.6 mph 39.1 mph 0.00 in Snow Light Snow
7:12 PM 24.8 °F 9.0 °F 19.4 °F 80% 29.74 in 1.8 mi NNW 25.3 mph 38.0 mph 0.00 in Snow Light Snow
7:29 PM 24.8 °F 9.0 °F 19.4 °F 80% 29.74 in 2.5 mi NNW 25.3 mph 38.0 mph 0.00 in Snow Light Snow
7:39 PM 24.8 °F 9.6 °F 19.4 °F 80% 29.75 in 1.5 mi NNW 23.0 mph 34.5 mph 0.00 in Snow Light Snow
7:53 PM 23.0 °F 6.3 °F 19.0 °F 85% 29.84 in 1.8 mi NNW 26.5 mph 36.8 mph 0.00 in Snow Light Snow
8:04 PM 23.0 °F 6.9 °F 19.4 °F 86% 29.76 in 2.5 mi NNW 24.2 mph 34.5 mph 0.00 in Snow Light Snow
8:17 PM 23.0 °F 8.7 °F 19.4 °F 86% 29.77 in 2.5 mi NNW 18.4 mph 34.5 mph 0.00 in Snow Light Snow
8:26 PM 23.0 °F 7.2 °F 19.4 °F 86% 29.77 in 2.5 mi NNW 23.0 mph 29.9 mph 0.00 in Snow Light Snow
8:37 PM 23.0 °F 7.2 °F 19.4 °F 86% 29.77 in 3.0 mi NNW 23.0 mph 31.1 mph 0.00 in Snow Light Snow
8:53 PM 21.9 °F 5.8 °F 18.0 °F 85% 29.88 in 3.0 mi NNW 23.0 mph 32.2 mph 0.00 in Snow Light Snow
9:53 PM 21.0 °F 5.7 °F 18.0 °F 88% 29.89 in 9.0 mi North 19.6 mph 24.2 mph 0.00 in   Mostly Cloudy
10:25 PM 19.4 °F 3.2 °F 17.6 °F 93% 29.80 in 10.0 mi North 20.7 mph - N/A   Scattered Clouds
10:37 PM 21.2 °F 5.2 °F 17.6 °F 86% 29.79 in 10.0 mi North 21.9 mph 32.2 mph N/A   Mostly Cloudy
10:53 PM 21.0 °F 5.0 °F 18.0 °F 88% 29.87 in 10.0 mi North 21.9 mph 29.9 mph N/A   Overcast
11:53 PM 19.9 °F 3.9 °F 17.1 °F 89% 29.87 in 10.0 mi North 20.7 mph 33.4 mph N/A   Overcast